This is the latest recevied weather packets stored in our database for station/object OH6GKW. If no packets are shown the sender has not sent any weather packets the latest 10 day(s).
| Time | Temp. | Humidity | Pressure | Rain* | Wind** | Luminosity | Snow |
|---|---|---|---|---|---|---|---|
| 1777873424 | 3.89° C | 73% | 1002.8 hPa | 0 mm | - | 253 W/m² | - |
| 1777873115 | 3.33° C | 73% | 1002.8 hPa | 0 mm | - | 155 W/m² | - |
| 1777872831 | 3.33° C | 74% | 1002.8 hPa | 0 mm | - | 120 W/m² | - |
| 1777872523 | 3.33° C | 74% | 1003 hPa | 0 mm | - | 107 W/m² | - |
| 1777872216 | 3.33° C | 75% | 1003 hPa | 0 mm | - | 97 W/m² | - |
| 1777871908 | 3.33° C | 76% | 1003 hPa | 0 mm | - | 107 W/m² | - |
| 1777871618 | 2.78° C | 77% | 1003.1 hPa | 0 mm | - | 225 W/m² | - |
| 1777871310 | 2.78° C | 78% | 1003.1 hPa | 0 mm | - | 100 W/m² | - |
| 1777871020 | 2.22° C | 79% | 1003.1 hPa | 0 mm | - | 79 W/m² | - |
| 1777870710 | 2.22° C | 79% | 1003.2 hPa | 0 mm | - | 76 W/m² | - |
| 1777870423 | 2.22° C | 79% | 1003.2 hPa | 0 mm | - | 72 W/m² | - |
| 1777870115 | 2.22° C | 80% | 1003.2 hPa | 0 mm | - | 77 W/m² | - |
| 1777869811 | 2.22° C | 81% | 1003.3 hPa | 0 mm | - | 104 W/m² | - |
| 1777869522 | 2.22° C | 81% | 1003.3 hPa | 0 mm | - | 91 W/m² | - |
| 1777869217 | 1.67° C | 82% | 1003.3 hPa | 0 mm | - | 95 W/m² | - |
| 1777868911 | 1.67° C | 83% | 1003.5 hPa | 0 mm | - | 67 W/m² | - |
| 1777868630 | 1.67° C | 84% | 1003.5 hPa | 0 mm | - | 63 W/m² | - |
| 1777868326 | 1.11° C | 84% | 1003.5 hPa | 0 mm | - | 62 W/m² | - |
| 1777868018 | 1.11° C | 84% | 1003.7 hPa | 0 mm | - | 55 W/m² | - |
| 1777867712 | 1.11° C | 85% | 1003.7 hPa | 0 mm | - | 53 W/m² | - |
| 1777867428 | 1.11° C | 85% | 1003.7 hPa | 0 mm | - | 49 W/m² | - |
| 1777867118 | 0.56° C | 85% | 1003.9 hPa | 0 mm | - | 46 W/m² | - |
| 1777866811 | 0.56° C | 86% | 1003.9 hPa | 0 mm | - | 48 W/m² | - |
| 1777866524 | 0.56° C | 86% | 1003.9 hPa | 0 mm | - | 48 W/m² | - |
| 1777866220 | 0.56° C | 87% | 1004 hPa | 0 mm | - | 44 W/m² | - |
* Rain since midnight (hover to see other rain measurements)
** Current wind speed in m/s (hover to see current wind gust speed)